カタログに戻る

CZ-6A DEB

運用中SSO
NORAD 54356·DEBRIS·🇨🇳 China

打ち上げ Nov 11, 2022 から Taiyuan Satellite Launch Center

Loading…

次のパス (今後24時間)

TLE

最新Source: Space-Track

元期: Sep 14, 2026, 02:42 UTC

1 54356U 22151DB  26257.11255271  .00002314  00000-0  78223-3 0  9995
2 54356  98.8664 317.8557 0066761 206.1805 153.6000 14.36610357199820

AllMySatでCZ-6A DEBをリアルタイム追跡

Download on the App Store